Index of /20260509/WXO-DD/model_rdps/10km/18/033
Name Last modified Size Description
Parent Directory -
20260509T18Z_MSC_RDPS_AbsoluteVorticity_IsbL-0250_RLatLon0.09_PT033H.grib2 2026-05-09 20:49 616K
20260509T18Z_MSC_RDPS_AbsoluteVorticity_IsbL-0500_RLatLon0.09_PT033H.grib2 2026-05-09 20:49 550K
20260509T18Z_MSC_RDPS_AbsoluteVorticity_IsbL-0700_RLatLon0.09_PT033H.grib2 2026-05-09 20:49 643K
20260509T18Z_MSC_RDPS_AbsoluteVorticity_IsbL-0850_RLatLon0.09_PT033H.grib2 2026-05-09 20:49 776K
20260509T18Z_MSC_RDPS_AirTemp_AGL-120m_RLatLon0.09_PT033H.grib2 2026-05-09 20:49 370K
20260509T18Z_MSC_RDPS_AirTemp_AGL-2m_RLatLon0.09_PT033H.grib2 2026-05-09 20:49 611K
20260509T18Z_MSC_RDPS_AirTemp_AGL-40m_RLatLon0.09_PT033H.grib2 2026-05-09 20:49 382K
20260509T18Z_MSC_RDPS_AirTemp_AGL-80m_RLatLon0.09_PT033H.grib2 2026-05-09 20:49 374K
20260509T18Z_MSC_RDPS_AirTemp_IsbL-0001_RLatLon0.09_PT033H.grib2 2026-05-09 20:49 303K
20260509T18Z_MSC_RDPS_AirTemp_IsbL-0005_RLatLon0.09_PT033H.grib2 2026-05-09 20:49 382K
20260509T18Z_MSC_RDPS_AirTemp_IsbL-0010_RLatLon0.09_PT033H.grib2 2026-05-09 20:49 301K
20260509T18Z_MSC_RDPS_AirTemp_IsbL-0020_RLatLon0.09_PT033H.grib2 2026-05-09 20:49 318K
20260509T18Z_MSC_RDPS_AirTemp_IsbL-0030_RLatLon0.09_PT033H.grib2 2026-05-09 20:49 341K
20260509T18Z_MSC_RDPS_AirTemp_IsbL-0050_RLatLon0.09_PT033H.grib2 2026-05-09 20:49 310K
20260509T18Z_MSC_RDPS_AirTemp_IsbL-0100_RLatLon0.09_PT033H.grib2 2026-05-09 20:49 391K
20260509T18Z_MSC_RDPS_AirTemp_IsbL-0150_RLatLon0.09_PT033H.grib2 2026-05-09 20:49 409K
20260509T18Z_MSC_RDPS_AirTemp_IsbL-0175_RLatLon0.09_PT033H.grib2 2026-05-09 20:49 401K
20260509T18Z_MSC_RDPS_AirTemp_IsbL-0200_RLatLon0.09_PT033H.grib2 2026-05-09 20:49 405K
20260509T18Z_MSC_RDPS_AirTemp_IsbL-0225_RLatLon0.09_PT033H.grib2 2026-05-09 20:49 411K
20260509T18Z_MSC_RDPS_AirTemp_IsbL-0250_RLatLon0.09_PT033H.grib2 2026-05-09 20:49 425K
20260509T18Z_MSC_RDPS_AirTemp_IsbL-0275_RLatLon0.09_PT033H.grib2 2026-05-09 20:49 406K
20260509T18Z_MSC_RDPS_AirTemp_IsbL-0300_RLatLon0.09_PT033H.grib2 2026-05-09 20:49 436K
20260509T18Z_MSC_RDPS_AirTemp_IsbL-0350_RLatLon0.09_PT033H.grib2 2026-05-09 20:49 423K
20260509T18Z_MSC_RDPS_AirTemp_IsbL-0400_RLatLon0.09_PT033H.grib2 2026-05-09 20:49 429K
20260509T18Z_MSC_RDPS_AirTemp_IsbL-0450_RLatLon0.09_PT033H.grib2 2026-05-09 20:49 438K
20260509T18Z_MSC_RDPS_AirTemp_IsbL-0500_RLatLon0.09_PT033H.grib2 2026-05-09 20:49 450K
20260509T18Z_MSC_RDPS_AirTemp_IsbL-0550_RLatLon0.09_PT033H.grib2 2026-05-09 20:49 467K
20260509T18Z_MSC_RDPS_AirTemp_IsbL-0600_RLatLon0.09_PT033H.grib2 2026-05-09 20:49 486K
20260509T18Z_MSC_RDPS_AirTemp_IsbL-0650_RLatLon0.09_PT033H.grib2 2026-05-09 20:49 501K
20260509T18Z_MSC_RDPS_AirTemp_IsbL-0700_RLatLon0.09_PT033H.grib2 2026-05-09 20:49 523K
20260509T18Z_MSC_RDPS_AirTemp_IsbL-0750_RLatLon0.09_PT033H.grib2 2026-05-09 20:49 521K
20260509T18Z_MSC_RDPS_AirTemp_IsbL-0800_RLatLon0.09_PT033H.grib2 2026-05-09 20:49 575K
20260509T18Z_MSC_RDPS_AirTemp_IsbL-0850_RLatLon0.09_PT033H.grib2 2026-05-09 20:49 625K
20260509T18Z_MSC_RDPS_AirTemp_IsbL-0875_RLatLon0.09_PT033H.grib2 2026-05-09 20:49 512K
20260509T18Z_MSC_RDPS_AirTemp_IsbL-0900_RLatLon0.09_PT033H.grib2 2026-05-09 20:49 516K
20260509T18Z_MSC_RDPS_AirTemp_IsbL-0925_RLatLon0.09_PT033H.grib2 2026-05-09 20:49 517K
20260509T18Z_MSC_RDPS_AirTemp_IsbL-0950_RLatLon0.09_PT033H.grib2 2026-05-09 20:49 520K
20260509T18Z_MSC_RDPS_AirTemp_IsbL-0970_RLatLon0.09_PT033H.grib2 2026-05-09 20:49 516K
20260509T18Z_MSC_RDPS_AirTemp_IsbL-0985_RLatLon0.09_PT033H.grib2 2026-05-09 20:49 506K
20260509T18Z_MSC_RDPS_AirTemp_IsbL-1000_RLatLon0.09_PT033H.grib2 2026-05-09 20:49 489K
20260509T18Z_MSC_RDPS_AirTemp_IsbL-1015_RLatLon0.09_PT033H.grib2 2026-05-09 20:49 492K
20260509T18Z_MSC_RDPS_Albedo_Sfc_RLatLon0.09_PT033H.grib2 2026-05-09 20:49 159K
20260509T18Z_MSC_RDPS_CAPE_Sfc_RLatLon0.09_PT033H.grib2 2026-05-09 20:49 1.8M
20260509T18Z_MSC_RDPS_CIN_Sfc_RLatLon0.09_PT033H.grib2 2026-05-09 20:49 1.3M
20260509T18Z_MSC_RDPS_CloudWater_EAtm_RLatLon0.09_PT033H.grib2 2026-05-09 20:49 228K
20260509T18Z_MSC_RDPS_ConvectivePrecip-Accum_Sfc_RLatLon0.09_PT033H.grib2 2026-05-09 20:49 1.0M
20260509T18Z_MSC_RDPS_DewPointDepression_AGL-2m_RLatLon0.09_PT033H.grib2 2026-05-09 20:49 398K
20260509T18Z_MSC_RDPS_DewPointDepression_IsbL-0001_RLatLon0.09_PT033H.grib2 2026-05-09 20:49 193
20260509T18Z_MSC_RDPS_DewPointDepression_IsbL-0005_RLatLon0.09_PT033H.grib2 2026-05-09 20:49 193
20260509T18Z_MSC_RDPS_DewPointDepression_IsbL-0010_RLatLon0.09_PT033H.grib2 2026-05-09 20:49 193
20260509T18Z_MSC_RDPS_DewPointDepression_IsbL-0020_RLatLon0.09_PT033H.grib2 2026-05-09 20:49 193
20260509T18Z_MSC_RDPS_DewPointDepression_IsbL-0030_RLatLon0.09_PT033H.grib2 2026-05-09 20:49 761
20260509T18Z_MSC_RDPS_DewPointDepression_IsbL-0050_RLatLon0.09_PT033H.grib2 2026-05-09 20:49 106K
20260509T18Z_MSC_RDPS_DewPointDepression_IsbL-0100_RLatLon0.09_PT033H.grib2 2026-05-09 20:49 113K
20260509T18Z_MSC_RDPS_DewPointDepression_IsbL-0150_RLatLon0.09_PT033H.grib2 2026-05-09 20:49 149K
20260509T18Z_MSC_RDPS_DewPointDepression_IsbL-0175_RLatLon0.09_PT033H.grib2 2026-05-09 20:49 170K
20260509T18Z_MSC_RDPS_DewPointDepression_IsbL-0200_RLatLon0.09_PT033H.grib2 2026-05-09 20:49 212K
20260509T18Z_MSC_RDPS_DewPointDepression_IsbL-0225_RLatLon0.09_PT033H.grib2 2026-05-09 20:49 262K
20260509T18Z_MSC_RDPS_DewPointDepression_IsbL-0250_RLatLon0.09_PT033H.grib2 2026-05-09 20:49 303K
20260509T18Z_MSC_RDPS_DewPointDepression_IsbL-0275_RLatLon0.09_PT033H.grib2 2026-05-09 20:49 309K
20260509T18Z_MSC_RDPS_DewPointDepression_IsbL-0300_RLatLon0.09_PT033H.grib2 2026-05-09 20:49 324K
20260509T18Z_MSC_RDPS_DewPointDepression_IsbL-0350_RLatLon0.09_PT033H.grib2 2026-05-09 20:49 334K
20260509T18Z_MSC_RDPS_DewPointDepression_IsbL-0400_RLatLon0.09_PT033H.grib2 2026-05-09 20:49 345K
20260509T18Z_MSC_RDPS_DewPointDepression_IsbL-0450_RLatLon0.09_PT033H.grib2 2026-05-09 20:49 348K
20260509T18Z_MSC_RDPS_DewPointDepression_IsbL-0500_RLatLon0.09_PT033H.grib2 2026-05-09 20:49 352K
20260509T18Z_MSC_RDPS_DewPointDepression_IsbL-0550_RLatLon0.09_PT033H.grib2 2026-05-09 20:49 365K
20260509T18Z_MSC_RDPS_DewPointDepression_IsbL-0600_RLatLon0.09_PT033H.grib2 2026-05-09 20:49 379K
20260509T18Z_MSC_RDPS_DewPointDepression_IsbL-0650_RLatLon0.09_PT033H.grib2 2026-05-09 20:49 387K
20260509T18Z_MSC_RDPS_DewPointDepression_IsbL-0700_RLatLon0.09_PT033H.grib2 2026-05-09 20:49 395K
20260509T18Z_MSC_RDPS_DewPointDepression_IsbL-0750_RLatLon0.09_PT033H.grib2 2026-05-09 20:49 411K
20260509T18Z_MSC_RDPS_DewPointDepression_IsbL-0800_RLatLon0.09_PT033H.grib2 2026-05-09 20:49 448K
20260509T18Z_MSC_RDPS_DewPointDepression_IsbL-0850_RLatLon0.09_PT033H.grib2 2026-05-09 20:49 468K
20260509T18Z_MSC_RDPS_DewPointDepression_IsbL-0875_RLatLon0.09_PT033H.grib2 2026-05-09 20:49 461K
20260509T18Z_MSC_RDPS_DewPointDepression_IsbL-0900_RLatLon0.09_PT033H.grib2 2026-05-09 20:49 448K
20260509T18Z_MSC_RDPS_DewPointDepression_IsbL-0925_RLatLon0.09_PT033H.grib2 2026-05-09 20:49 439K
20260509T18Z_MSC_RDPS_DewPointDepression_IsbL-0950_RLatLon0.09_PT033H.grib2 2026-05-09 20:49 434K
20260509T18Z_MSC_RDPS_DewPointDepression_IsbL-0970_RLatLon0.09_PT033H.grib2 2026-05-09 20:49 429K
20260509T18Z_MSC_RDPS_DewPointDepression_IsbL-0985_RLatLon0.09_PT033H.grib2 2026-05-09 20:49 424K
20260509T18Z_MSC_RDPS_DewPointDepression_IsbL-1000_RLatLon0.09_PT033H.grib2 2026-05-09 20:49 417K
20260509T18Z_MSC_RDPS_DewPointDepression_IsbL-1015_RLatLon0.09_PT033H.grib2 2026-05-09 20:49 405K
20260509T18Z_MSC_RDPS_DewPoint_AGL-2m_RLatLon0.09_PT033H.grib2 2026-05-09 20:49 386K
20260509T18Z_MSC_RDPS_DownwardLongwaveRadiationFlux-Accum_Sfc_RLatLon0.09_PT033H.grib2 2026-05-09 20:49 488K
20260509T18Z_MSC_RDPS_DownwardShortwaveRadiationFlux-Accum_NTAtm_RLatLon0.09_PT033H.grib2 2026-05-09 20:49 145K
20260509T18Z_MSC_RDPS_DownwardShortwaveRadiationFlux-Accum_Sfc_RLatLon0.09_PT033H.grib2 2026-05-09 20:49 529K
20260509T18Z_MSC_RDPS_FreezingRain-Accum1h_Sfc_RLatLon0.09_PT033H.grib2 2026-05-09 20:49 31K
20260509T18Z_MSC_RDPS_FreezingRain-Accum3h_Sfc_RLatLon0.09_PT033H.grib2 2026-05-09 20:49 36K
20260509T18Z_MSC_RDPS_FreezingRain-Accum_Sfc_RLatLon0.09_PT033H.grib2 2026-05-09 20:49 129K
20260509T18Z_MSC_RDPS_GeopotentialHeight_IsbL-0001_RLatLon0.09_PT033H.grib2 2026-05-09 20:49 240K
20260509T18Z_MSC_RDPS_GeopotentialHeight_IsbL-0005_RLatLon0.09_PT033H.grib2 2026-05-09 20:49 305K
20260509T18Z_MSC_RDPS_GeopotentialHeight_IsbL-0010_RLatLon0.09_PT033H.grib2 2026-05-09 20:49 306K
20260509T18Z_MSC_RDPS_GeopotentialHeight_IsbL-0020_RLatLon0.09_PT033H.grib2 2026-05-09 20:49 403K
20260509T18Z_MSC_RDPS_GeopotentialHeight_IsbL-0030_RLatLon0.09_PT033H.grib2 2026-05-09 20:49 309K
20260509T18Z_MSC_RDPS_GeopotentialHeight_IsbL-0050_RLatLon0.09_PT033H.grib2 2026-05-09 20:49 308K
20260509T18Z_MSC_RDPS_GeopotentialHeight_IsbL-0100_RLatLon0.09_PT033H.grib2 2026-05-09 20:49 283K
20260509T18Z_MSC_RDPS_GeopotentialHeight_IsbL-0150_RLatLon0.09_PT033H.grib2 2026-05-09 20:49 224K
20260509T18Z_MSC_RDPS_GeopotentialHeight_IsbL-0175_RLatLon0.09_PT033H.grib2 2026-05-09 20:49 227K
20260509T18Z_MSC_RDPS_GeopotentialHeight_IsbL-0200_RLatLon0.09_PT033H.grib2 2026-05-09 20:49 229K
20260509T18Z_MSC_RDPS_GeopotentialHeight_IsbL-0225_RLatLon0.09_PT033H.grib2 2026-05-09 20:49 262K
20260509T18Z_MSC_RDPS_GeopotentialHeight_IsbL-0250_RLatLon0.09_PT033H.grib2 2026-05-09 20:49 263K
20260509T18Z_MSC_RDPS_GeopotentialHeight_IsbL-0275_RLatLon0.09_PT033H.grib2 2026-05-09 20:49 232K
20260509T18Z_MSC_RDPS_GeopotentialHeight_IsbL-0300_RLatLon0.09_PT033H.grib2 2026-05-09 20:49 232K
20260509T18Z_MSC_RDPS_GeopotentialHeight_IsbL-0350_RLatLon0.09_PT033H.grib2 2026-05-09 20:49 230K
20260509T18Z_MSC_RDPS_GeopotentialHeight_IsbL-0400_RLatLon0.09_PT033H.grib2 2026-05-09 20:49 226K
20260509T18Z_MSC_RDPS_GeopotentialHeight_IsbL-0450_RLatLon0.09_PT033H.grib2 2026-05-09 20:49 294K
20260509T18Z_MSC_RDPS_GeopotentialHeight_IsbL-0500_RLatLon0.09_PT033H.grib2 2026-05-09 20:49 290K
20260509T18Z_MSC_RDPS_GeopotentialHeight_IsbL-0550_RLatLon0.09_PT033H.grib2 2026-05-09 20:49 286K
20260509T18Z_MSC_RDPS_GeopotentialHeight_IsbL-0600_RLatLon0.09_PT033H.grib2 2026-05-09 20:49 284K
20260509T18Z_MSC_RDPS_GeopotentialHeight_IsbL-0650_RLatLon0.09_PT033H.grib2 2026-05-09 20:49 282K
20260509T18Z_MSC_RDPS_GeopotentialHeight_IsbL-0700_RLatLon0.09_PT033H.grib2 2026-05-09 20:49 253K
20260509T18Z_MSC_RDPS_GeopotentialHeight_IsbL-0750_RLatLon0.09_PT033H.grib2 2026-05-09 20:49 255K
20260509T18Z_MSC_RDPS_GeopotentialHeight_IsbL-0800_RLatLon0.09_PT033H.grib2 2026-05-09 20:49 261K
20260509T18Z_MSC_RDPS_GeopotentialHeight_IsbL-0850_RLatLon0.09_PT033H.grib2 2026-05-09 20:49 353K
20260509T18Z_MSC_RDPS_GeopotentialHeight_IsbL-0875_RLatLon0.09_PT033H.grib2 2026-05-09 20:49 356K
20260509T18Z_MSC_RDPS_GeopotentialHeight_IsbL-0900_RLatLon0.09_PT033H.grib2 2026-05-09 20:49 358K
20260509T18Z_MSC_RDPS_GeopotentialHeight_IsbL-0925_RLatLon0.09_PT033H.grib2 2026-05-09 20:49 362K
20260509T18Z_MSC_RDPS_GeopotentialHeight_IsbL-0950_RLatLon0.09_PT033H.grib2 2026-05-09 20:49 362K
20260509T18Z_MSC_RDPS_GeopotentialHeight_IsbL-0970_RLatLon0.09_PT033H.grib2 2026-05-09 20:49 368K
20260509T18Z_MSC_RDPS_GeopotentialHeight_IsbL-0985_RLatLon0.09_PT033H.grib2 2026-05-09 20:49 377K
20260509T18Z_MSC_RDPS_GeopotentialHeight_IsbL-1000_RLatLon0.09_PT033H.grib2 2026-05-09 20:49 388K
20260509T18Z_MSC_RDPS_GeopotentialHeight_IsbL-1015_RLatLon0.09_PT033H.grib2 2026-05-09 20:49 404K
20260509T18Z_MSC_RDPS_HighLowPressure_MSL_RLatLon0.09_PT033H.json 2026-05-09 20:41 22K
20260509T18Z_MSC_RDPS_Humidex_Sfc_RLatLon0.09_PT033H.grib2 2026-05-09 20:49 2.4M
20260509T18Z_MSC_RDPS_IcePellets-Accum1h_Sfc_RLatLon0.09_PT033H.grib2 2026-05-09 20:49 11K
20260509T18Z_MSC_RDPS_IcePellets-Accum3h_Sfc_RLatLon0.09_PT033H.grib2 2026-05-09 20:49 14K
20260509T18Z_MSC_RDPS_IcePellets-Accum_Sfc_RLatLon0.09_PT033H.grib2 2026-05-09 20:49 30K
20260509T18Z_MSC_RDPS_KIndex_Sfc_RLatLon0.09_PT033H.grib2 2026-05-09 20:49 2.5M
20260509T18Z_MSC_RDPS_LatentHeatNetFlux_Sfc_RLatLon0.09_PT033H.grib2 2026-05-09 20:49 328K
20260509T18Z_MSC_RDPS_LiftedIndex-MU-VT_IsbL-0500_RLatLon0.09_PT033H.grib2 2026-05-09 20:49 2.4M
20260509T18Z_MSC_RDPS_NetLongwaveRadiationFlux-Accum_Sfc_RLatLon0.09_PT033H.grib2 2026-05-09 20:49 498K
20260509T18Z_MSC_RDPS_NetShortwaveRadiationFlux-Accum_Sfc_RLatLon0.09_PT033H.grib2 2026-05-09 20:49 526K
20260509T18Z_MSC_RDPS_PlanetaryBoundaryLayerHeight_Sfc_RLatLon0.09_PT033H.grib2 2026-05-09 20:49 1.1M
20260509T18Z_MSC_RDPS_Precip-Accum1h_Sfc_RLatLon0.09_PT033H.grib2 2026-05-09 20:49 1.2M
20260509T18Z_MSC_RDPS_Precip-Accum3h_Sfc_RLatLon0.09_PT033H.grib2 2026-05-09 20:49 1.3M
20260509T18Z_MSC_RDPS_Precip-Accum_Sfc_RLatLon0.09_PT033H.grib2 2026-05-09 20:49 1.8M
20260509T18Z_MSC_RDPS_PrecipRate_Sfc_RLatLon0.09_PT033H.grib2 2026-05-09 20:49 193K
20260509T18Z_MSC_RDPS_PrecipType-Instant_Sfc_RLatLon0.09_PT033H.grib2 2026-05-09 20:49 596K
20260509T18Z_MSC_RDPS_Pressure-Trend3h_Sfc_RLatLon0.09_PT033H.grib2 2026-05-09 20:49 1.2M
20260509T18Z_MSC_RDPS_Pressure_MSL_RLatLon0.09_PT033H.grib2 2026-05-09 20:49 324K
20260509T18Z_MSC_RDPS_Pressure_PVU-1.5_RLatLon0.09_PT033H.grib2 2026-05-09 20:49 2.3M
20260509T18Z_MSC_RDPS_Pressure_PVU-1_RLatLon0.09_PT033H.grib2 2026-05-09 20:49 2.4M
20260509T18Z_MSC_RDPS_Pressure_PVU-2_RLatLon0.09_PT033H.grib2 2026-05-09 20:49 2.4M
20260509T18Z_MSC_RDPS_Pressure_Sfc_RLatLon0.09_PT033H.grib2 2026-05-09 20:49 498K
20260509T18Z_MSC_RDPS_RadiativeTemp_Sfc_RLatLon0.09_PT033H.grib2 2026-05-09 20:49 389K
20260509T18Z_MSC_RDPS_Rain-Accum1h_Sfc_RLatLon0.09_PT033H.grib2 2026-05-09 20:49 639K
20260509T18Z_MSC_RDPS_Rain-Accum3h_Sfc_RLatLon0.09_PT033H.grib2 2026-05-09 20:49 654K
20260509T18Z_MSC_RDPS_Rain-Accum_Sfc_RLatLon0.09_PT033H.grib2 2026-05-09 20:49 1.5M
20260509T18Z_MSC_RDPS_RelativeHumidity_AGL-2m_RLatLon0.09_PT033H.grib2 2026-05-09 20:49 1.0M
20260509T18Z_MSC_RDPS_RelativeHumidity_IsbL-0010_RLatLon0.09_PT033H.grib2 2026-05-09 20:49 591K
20260509T18Z_MSC_RDPS_RelativeHumidity_IsbL-0020_RLatLon0.09_PT033H.grib2 2026-05-09 20:49 645K
20260509T18Z_MSC_RDPS_RelativeHumidity_IsbL-0030_RLatLon0.09_PT033H.grib2 2026-05-09 20:49 627K
20260509T18Z_MSC_RDPS_RelativeHumidity_IsbL-0050_RLatLon0.09_PT033H.grib2 2026-05-09 20:49 351K
20260509T18Z_MSC_RDPS_RelativeHumidity_IsbL-0100_RLatLon0.09_PT033H.grib2 2026-05-09 20:49 278K
20260509T18Z_MSC_RDPS_RelativeHumidity_IsbL-0150_RLatLon0.09_PT033H.grib2 2026-05-09 20:49 423K
20260509T18Z_MSC_RDPS_RelativeHumidity_IsbL-0175_RLatLon0.09_PT033H.grib2 2026-05-09 20:49 479K
20260509T18Z_MSC_RDPS_RelativeHumidity_IsbL-0200_RLatLon0.09_PT033H.grib2 2026-05-09 20:49 547K
20260509T18Z_MSC_RDPS_RelativeHumidity_IsbL-0225_RLatLon0.09_PT033H.grib2 2026-05-09 20:49 622K
20260509T18Z_MSC_RDPS_RelativeHumidity_IsbL-0250_RLatLon0.09_PT033H.grib2 2026-05-09 20:49 700K
20260509T18Z_MSC_RDPS_RelativeHumidity_IsbL-0275_RLatLon0.09_PT033H.grib2 2026-05-09 20:49 725K
20260509T18Z_MSC_RDPS_RelativeHumidity_IsbL-0300_RLatLon0.09_PT033H.grib2 2026-05-09 20:49 765K
20260509T18Z_MSC_RDPS_RelativeHumidity_IsbL-0350_RLatLon0.09_PT033H.grib2 2026-05-09 20:49 780K
20260509T18Z_MSC_RDPS_RelativeHumidity_IsbL-0400_RLatLon0.09_PT033H.grib2 2026-05-09 20:49 797K
20260509T18Z_MSC_RDPS_RelativeHumidity_IsbL-0450_RLatLon0.09_PT033H.grib2 2026-05-09 20:49 805K
20260509T18Z_MSC_RDPS_RelativeHumidity_IsbL-0500_RLatLon0.09_PT033H.grib2 2026-05-09 20:49 823K
20260509T18Z_MSC_RDPS_RelativeHumidity_IsbL-0550_RLatLon0.09_PT033H.grib2 2026-05-09 20:49 839K
20260509T18Z_MSC_RDPS_RelativeHumidity_IsbL-0600_RLatLon0.09_PT033H.grib2 2026-05-09 20:49 852K
20260509T18Z_MSC_RDPS_RelativeHumidity_IsbL-0650_RLatLon0.09_PT033H.grib2 2026-05-09 20:49 867K
20260509T18Z_MSC_RDPS_RelativeHumidity_IsbL-0700_RLatLon0.09_PT033H.grib2 2026-05-09 20:49 898K
20260509T18Z_MSC_RDPS_RelativeHumidity_IsbL-0750_RLatLon0.09_PT033H.grib2 2026-05-09 20:49 932K
20260509T18Z_MSC_RDPS_RelativeHumidity_IsbL-0800_RLatLon0.09_PT033H.grib2 2026-05-09 20:49 1.0M
20260509T18Z_MSC_RDPS_RelativeHumidity_IsbL-0850_RLatLon0.09_PT033H.grib2 2026-05-09 20:49 1.0M
20260509T18Z_MSC_RDPS_RelativeHumidity_IsbL-0875_RLatLon0.09_PT033H.grib2 2026-05-09 20:49 1.0M
20260509T18Z_MSC_RDPS_RelativeHumidity_IsbL-0900_RLatLon0.09_PT033H.grib2 2026-05-09 20:49 1.0M
20260509T18Z_MSC_RDPS_RelativeHumidity_IsbL-0925_RLatLon0.09_PT033H.grib2 2026-05-09 20:49 1.0M
20260509T18Z_MSC_RDPS_RelativeHumidity_IsbL-0950_RLatLon0.09_PT033H.grib2 2026-05-09 20:49 1.0M
20260509T18Z_MSC_RDPS_RelativeHumidity_IsbL-0970_RLatLon0.09_PT033H.grib2 2026-05-09 20:49 1.0M
20260509T18Z_MSC_RDPS_RelativeHumidity_IsbL-0985_RLatLon0.09_PT033H.grib2 2026-05-09 20:49 1.0M
20260509T18Z_MSC_RDPS_RelativeHumidity_IsbL-1000_RLatLon0.09_PT033H.grib2 2026-05-09 20:49 1.0M
20260509T18Z_MSC_RDPS_RelativeHumidity_IsbL-1015_RLatLon0.09_PT033H.grib2 2026-05-09 20:49 1.0M
20260509T18Z_MSC_RDPS_Runoff-Accum_Sfc_RLatLon0.09_PT033H.grib2 2026-05-09 20:49 51K
20260509T18Z_MSC_RDPS_SWEATIndex_Sfc_RLatLon0.09_PT033H.grib2 2026-05-09 20:49 2.5M
20260509T18Z_MSC_RDPS_SeeingIndex_EAtm_RLatLon0.09_PT033H.grib2 2026-05-09 20:49 1.0M
20260509T18Z_MSC_RDPS_SensibleHeatNetFlux_Sfc_RLatLon0.09_PT033H.grib2 2026-05-09 20:49 212K
20260509T18Z_MSC_RDPS_ShowalterIndex_IsbL-0500_RLatLon0.09_PT033H.grib2 2026-05-09 20:49 2.6M
20260509T18Z_MSC_RDPS_SkyTransparencyIndex_EAtm_RLatLon0.09_PT033H.grib2 2026-05-09 20:49 695K
20260509T18Z_MSC_RDPS_Snow-Accum1h_Sfc_RLatLon0.09_PT033H.grib2 2026-05-09 20:49 422K
20260509T18Z_MSC_RDPS_Snow-Accum3h_Sfc_RLatLon0.09_PT033H.grib2 2026-05-09 20:49 424K
20260509T18Z_MSC_RDPS_Snow-Accum_Sfc_RLatLon0.09_PT033H.grib2 2026-05-09 20:49 638K
20260509T18Z_MSC_RDPS_SnowDensity_Sfc_RLatLon0.09_PT033H.grib2 2026-05-09 20:49 169K
20260509T18Z_MSC_RDPS_SnowDepth_Sfc_RLatLon0.09_PT033H.grib2 2026-05-09 20:49 617K
20260509T18Z_MSC_RDPS_SoilTemp_DBS-0to10cm_RLatLon0.09_PT033H.grib2 2026-05-09 20:49 235K
20260509T18Z_MSC_RDPS_SoilTemp_Sfc_RLatLon0.09_PT033H.grib2 2026-05-09 20:49 279K
20260509T18Z_MSC_RDPS_SoilVolumetricIceContent_Sfc_RLatLon0.09_PT033H.grib2 2026-05-09 20:49 142K
20260509T18Z_MSC_RDPS_SoilVolumetricWaterContent_DBS-0to10cm_RLatLon0.09_PT033H.grib2 2026-05-09 20:49 292K
20260509T18Z_MSC_RDPS_SoilVolumetricWaterContent_DBS-0to1cm_RLatLon0.09_PT033H.grib2 2026-05-09 20:49 346K
20260509T18Z_MSC_RDPS_SpecificHumidity_AGL-120m_RLatLon0.09_PT033H.grib2 2026-05-09 20:49 494K
20260509T18Z_MSC_RDPS_SpecificHumidity_AGL-2m_RLatLon0.09_PT033H.grib2 2026-05-09 20:49 665K
20260509T18Z_MSC_RDPS_SpecificHumidity_AGL-40m_RLatLon0.09_PT033H.grib2 2026-05-09 20:49 501K
20260509T18Z_MSC_RDPS_SpecificHumidity_AGL-80m_RLatLon0.09_PT033H.grib2 2026-05-09 20:49 495K
20260509T18Z_MSC_RDPS_SpecificHumidity_IsbL-0001_RLatLon0.09_PT033H.grib2 2026-05-09 20:49 395K
20260509T18Z_MSC_RDPS_SpecificHumidity_IsbL-0005_RLatLon0.09_PT033H.grib2 2026-05-09 20:49 371K
20260509T18Z_MSC_RDPS_SpecificHumidity_IsbL-0010_RLatLon0.09_PT033H.grib2 2026-05-09 20:49 395K
20260509T18Z_MSC_RDPS_SpecificHumidity_IsbL-0020_RLatLon0.09_PT033H.grib2 2026-05-09 20:49 385K
20260509T18Z_MSC_RDPS_SpecificHumidity_IsbL-0030_RLatLon0.09_PT033H.grib2 2026-05-09 20:49 375K
20260509T18Z_MSC_RDPS_SpecificHumidity_IsbL-0050_RLatLon0.09_PT033H.grib2 2026-05-09 20:49 486K
20260509T18Z_MSC_RDPS_SpecificHumidity_IsbL-0100_RLatLon0.09_PT033H.grib2 2026-05-09 20:49 434K
20260509T18Z_MSC_RDPS_SpecificHumidity_IsbL-0150_RLatLon0.09_PT033H.grib2 2026-05-09 20:49 451K
20260509T18Z_MSC_RDPS_SpecificHumidity_IsbL-0175_RLatLon0.09_PT033H.grib2 2026-05-09 20:49 442K
20260509T18Z_MSC_RDPS_SpecificHumidity_IsbL-0200_RLatLon0.09_PT033H.grib2 2026-05-09 20:49 476K
20260509T18Z_MSC_RDPS_SpecificHumidity_IsbL-0225_RLatLon0.09_PT033H.grib2 2026-05-09 20:49 484K
20260509T18Z_MSC_RDPS_SpecificHumidity_IsbL-0250_RLatLon0.09_PT033H.grib2 2026-05-09 20:49 560K
20260509T18Z_MSC_RDPS_SpecificHumidity_IsbL-0275_RLatLon0.09_PT033H.grib2 2026-05-09 20:49 488K
20260509T18Z_MSC_RDPS_SpecificHumidity_IsbL-0300_RLatLon0.09_PT033H.grib2 2026-05-09 20:49 460K
20260509T18Z_MSC_RDPS_SpecificHumidity_IsbL-0350_RLatLon0.09_PT033H.grib2 2026-05-09 20:49 454K
20260509T18Z_MSC_RDPS_SpecificHumidity_IsbL-0400_RLatLon0.09_PT033H.grib2 2026-05-09 20:49 540K
20260509T18Z_MSC_RDPS_SpecificHumidity_IsbL-0450_RLatLon0.09_PT033H.grib2 2026-05-09 20:49 476K
20260509T18Z_MSC_RDPS_SpecificHumidity_IsbL-0500_RLatLon0.09_PT033H.grib2 2026-05-09 20:49 529K
20260509T18Z_MSC_RDPS_SpecificHumidity_IsbL-0550_RLatLon0.09_PT033H.grib2 2026-05-09 20:49 603K
20260509T18Z_MSC_RDPS_SpecificHumidity_IsbL-0600_RLatLon0.09_PT033H.grib2 2026-05-09 20:49 659K
20260509T18Z_MSC_RDPS_SpecificHumidity_IsbL-0650_RLatLon0.09_PT033H.grib2 2026-05-09 20:49 579K
20260509T18Z_MSC_RDPS_SpecificHumidity_IsbL-0700_RLatLon0.09_PT033H.grib2 2026-05-09 20:49 622K
20260509T18Z_MSC_RDPS_SpecificHumidity_IsbL-0750_RLatLon0.09_PT033H.grib2 2026-05-09 20:49 675K
20260509T18Z_MSC_RDPS_SpecificHumidity_IsbL-0800_RLatLon0.09_PT033H.grib2 2026-05-09 20:49 759K
20260509T18Z_MSC_RDPS_SpecificHumidity_IsbL-0850_RLatLon0.09_PT033H.grib2 2026-05-09 20:49 821K
20260509T18Z_MSC_RDPS_SpecificHumidity_IsbL-0875_RLatLon0.09_PT033H.grib2 2026-05-09 20:49 699K
20260509T18Z_MSC_RDPS_SpecificHumidity_IsbL-0900_RLatLon0.09_PT033H.grib2 2026-05-09 20:49 705K
20260509T18Z_MSC_RDPS_SpecificHumidity_IsbL-0925_RLatLon0.09_PT033H.grib2 2026-05-09 20:49 709K
20260509T18Z_MSC_RDPS_SpecificHumidity_IsbL-0950_RLatLon0.09_PT033H.grib2 2026-05-09 20:49 712K
20260509T18Z_MSC_RDPS_SpecificHumidity_IsbL-0970_RLatLon0.09_PT033H.grib2 2026-05-09 20:49 706K
20260509T18Z_MSC_RDPS_SpecificHumidity_IsbL-0985_RLatLon0.09_PT033H.grib2 2026-05-09 20:49 696K
20260509T18Z_MSC_RDPS_SpecificHumidity_IsbL-1000_RLatLon0.09_PT033H.grib2 2026-05-09 20:49 690K
20260509T18Z_MSC_RDPS_SpecificHumidity_IsbL-1015_RLatLon0.09_PT033H.grib2 2026-05-09 20:49 681K
20260509T18Z_MSC_RDPS_SpecificHumidity_Sfc_RLatLon0.09_PT033H.grib2 2026-05-09 20:49 330K
20260509T18Z_MSC_RDPS_StormRelativeHelicity_EtaL-10000_RLatLon0.09_PT033H.grib2 2026-05-09 20:49 1.1M
20260509T18Z_MSC_RDPS_StormSeverityIndex_EtaL-10000_RLatLon0.09_PT033H.grib2 2026-05-09 20:49 1.2M
20260509T18Z_MSC_RDPS_Thickness_IsbL-0850to0700_RLatLon0.09_PT033H.grib2 2026-05-09 20:49 246K
20260509T18Z_MSC_RDPS_Thickness_IsbL-1000to0500_RLatLon0.09_PT033H.grib2 2026-05-09 20:49 192K
20260509T18Z_MSC_RDPS_Thickness_IsbL-1000to0850_RLatLon0.09_PT033H.grib2 2026-05-09 20:49 258K
20260509T18Z_MSC_RDPS_TotalCloudCover_Sfc_RLatLon0.09_PT033H.grib2 2026-05-09 20:49 673K
20260509T18Z_MSC_RDPS_TotalTotalsIndex_Sfc_RLatLon0.09_PT033H.grib2 2026-05-09 20:49 2.4M
20260509T18Z_MSC_RDPS_UVIndex-ClearSky_Sfc_RLatLon0.09_PT033H.grib2 2026-05-09 20:49 106K
20260509T18Z_MSC_RDPS_UVIndex_Sfc_RLatLon0.09_PT033H.grib2 2026-05-09 20:49 212K
20260509T18Z_MSC_RDPS_UpwardLongwaveRadiationFlux_NTAtm_RLatLon0.09_PT033H.grib2 2026-05-09 20:49 493K
20260509T18Z_MSC_RDPS_UpwardShortwaveRadiationFlux_NTAtm_RLatLon0.09_PT033H.grib2 2026-05-09 20:49 207K
20260509T18Z_MSC_RDPS_VerticalVelocity_IsbL-0250_RLatLon0.09_PT033H.grib2 2026-05-09 20:49 569K
20260509T18Z_MSC_RDPS_VerticalVelocity_IsbL-0500_RLatLon0.09_PT033H.grib2 2026-05-09 20:49 539K
20260509T18Z_MSC_RDPS_VerticalVelocity_IsbL-0700_RLatLon0.09_PT033H.grib2 2026-05-09 20:49 594K
20260509T18Z_MSC_RDPS_VerticalVelocity_IsbL-0850_RLatLon0.09_PT033H.grib2 2026-05-09 20:49 649K
20260509T18Z_MSC_RDPS_VerticalWindShear_EtaL-6500_RLatLon0.09_PT033H.grib2 2026-05-09 20:49 1.2M
20260509T18Z_MSC_RDPS_WindChill_Sfc_RLatLon0.09_PT033H.grib2 2026-05-09 20:49 1.2M
20260509T18Z_MSC_RDPS_WindDir_AGL-10m_RLatLon0.09_PT033H.grib2 2026-05-09 20:49 960K
20260509T18Z_MSC_RDPS_WindDir_AGL-120m_RLatLon0.09_PT033H.grib2 2026-05-09 20:49 600K
20260509T18Z_MSC_RDPS_WindDir_AGL-40m_RLatLon0.09_PT033H.grib2 2026-05-09 20:49 631K
20260509T18Z_MSC_RDPS_WindDir_AGL-80m_RLatLon0.09_PT033H.grib2 2026-05-09 20:49 613K
20260509T18Z_MSC_RDPS_WindDir_IsbL-0001_RLatLon0.09_PT033H.grib2 2026-05-09 20:49 282K
20260509T18Z_MSC_RDPS_WindDir_IsbL-0005_RLatLon0.09_PT033H.grib2 2026-05-09 20:49 372K
20260509T18Z_MSC_RDPS_WindDir_IsbL-0010_RLatLon0.09_PT033H.grib2 2026-05-09 20:49 404K
20260509T18Z_MSC_RDPS_WindDir_IsbL-0020_RLatLon0.09_PT033H.grib2 2026-05-09 20:49 446K
20260509T18Z_MSC_RDPS_WindDir_IsbL-0030_RLatLon0.09_PT033H.grib2 2026-05-09 20:49 443K
20260509T18Z_MSC_RDPS_WindDir_IsbL-0050_RLatLon0.09_PT033H.grib2 2026-05-09 20:49 443K
20260509T18Z_MSC_RDPS_WindDir_IsbL-0100_RLatLon0.09_PT033H.grib2 2026-05-09 20:49 429K
20260509T18Z_MSC_RDPS_WindDir_IsbL-0150_RLatLon0.09_PT033H.grib2 2026-05-09 20:49 434K
20260509T18Z_MSC_RDPS_WindDir_IsbL-0175_RLatLon0.09_PT033H.grib2 2026-05-09 20:49 452K
20260509T18Z_MSC_RDPS_WindDir_IsbL-0200_RLatLon0.09_PT033H.grib2 2026-05-09 20:49 467K
20260509T18Z_MSC_RDPS_WindDir_IsbL-0225_RLatLon0.09_PT033H.grib2 2026-05-09 20:49 468K
20260509T18Z_MSC_RDPS_WindDir_IsbL-0250_RLatLon0.09_PT033H.grib2 2026-05-09 20:49 470K
20260509T18Z_MSC_RDPS_WindDir_IsbL-0275_RLatLon0.09_PT033H.grib2 2026-05-09 20:49 494K
20260509T18Z_MSC_RDPS_WindDir_IsbL-0300_RLatLon0.09_PT033H.grib2 2026-05-09 20:49 495K
20260509T18Z_MSC_RDPS_WindDir_IsbL-0350_RLatLon0.09_PT033H.grib2 2026-05-09 20:49 520K
20260509T18Z_MSC_RDPS_WindDir_IsbL-0400_RLatLon0.09_PT033H.grib2 2026-05-09 20:49 542K
20260509T18Z_MSC_RDPS_WindDir_IsbL-0450_RLatLon0.09_PT033H.grib2 2026-05-09 20:49 555K
20260509T18Z_MSC_RDPS_WindDir_IsbL-0500_RLatLon0.09_PT033H.grib2 2026-05-09 20:49 572K
20260509T18Z_MSC_RDPS_WindDir_IsbL-0550_RLatLon0.09_PT033H.grib2 2026-05-09 20:49 584K
20260509T18Z_MSC_RDPS_WindDir_IsbL-0600_RLatLon0.09_PT033H.grib2 2026-05-09 20:49 608K
20260509T18Z_MSC_RDPS_WindDir_IsbL-0650_RLatLon0.09_PT033H.grib2 2026-05-09 20:49 650K
20260509T18Z_MSC_RDPS_WindDir_IsbL-0700_RLatLon0.09_PT033H.grib2 2026-05-09 20:49 687K
20260509T18Z_MSC_RDPS_WindDir_IsbL-0750_RLatLon0.09_PT033H.grib2 2026-05-09 20:49 728K
20260509T18Z_MSC_RDPS_WindDir_IsbL-0800_RLatLon0.09_PT033H.grib2 2026-05-09 20:49 793K
20260509T18Z_MSC_RDPS_WindDir_IsbL-0850_RLatLon0.09_PT033H.grib2 2026-05-09 20:49 853K
20260509T18Z_MSC_RDPS_WindDir_IsbL-0875_RLatLon0.09_PT033H.grib2 2026-05-09 20:49 875K
20260509T18Z_MSC_RDPS_WindDir_IsbL-0900_RLatLon0.09_PT033H.grib2 2026-05-09 20:49 890K
20260509T18Z_MSC_RDPS_WindDir_IsbL-0925_RLatLon0.09_PT033H.grib2 2026-05-09 20:49 904K
20260509T18Z_MSC_RDPS_WindDir_IsbL-0950_RLatLon0.09_PT033H.grib2 2026-05-09 20:49 907K
20260509T18Z_MSC_RDPS_WindDir_IsbL-0970_RLatLon0.09_PT033H.grib2 2026-05-09 20:49 908K
20260509T18Z_MSC_RDPS_WindDir_IsbL-0985_RLatLon0.09_PT033H.grib2 2026-05-09 20:49 919K
20260509T18Z_MSC_RDPS_WindDir_IsbL-1000_RLatLon0.09_PT033H.grib2 2026-05-09 20:49 937K
20260509T18Z_MSC_RDPS_WindDir_IsbL-1015_RLatLon0.09_PT033H.grib2 2026-05-09 20:49 955K
20260509T18Z_MSC_RDPS_WindGust-Max_AGL-10m_RLatLon0.09_PT033H.grib2 2026-05-09 20:49 1.0M
20260509T18Z_MSC_RDPS_WindGust-Min_AGL-10m_RLatLon0.09_PT033H.grib2 2026-05-09 20:49 972K
20260509T18Z_MSC_RDPS_WindGust_AGL-10m_RLatLon0.09_PT033H.grib2 2026-05-09 20:49 1.0M
20260509T18Z_MSC_RDPS_WindSpeed_AGL-10m_RLatLon0.09_PT033H.grib2 2026-05-09 20:49 835K
20260509T18Z_MSC_RDPS_WindSpeed_AGL-120m_RLatLon0.09_PT033H.grib2 2026-05-09 20:49 548K
20260509T18Z_MSC_RDPS_WindSpeed_AGL-40m_RLatLon0.09_PT033H.grib2 2026-05-09 20:49 540K
20260509T18Z_MSC_RDPS_WindSpeed_AGL-80m_RLatLon0.09_PT033H.grib2 2026-05-09 20:49 537K
20260509T18Z_MSC_RDPS_WindSpeed_IsbL-0001_RLatLon0.09_PT033H.grib2 2026-05-09 20:49 254K
20260509T18Z_MSC_RDPS_WindSpeed_IsbL-0005_RLatLon0.09_PT033H.grib2 2026-05-09 20:49 390K
20260509T18Z_MSC_RDPS_WindSpeed_IsbL-0010_RLatLon0.09_PT033H.grib2 2026-05-09 20:49 401K
20260509T18Z_MSC_RDPS_WindSpeed_IsbL-0020_RLatLon0.09_PT033H.grib2 2026-05-09 20:49 327K
20260509T18Z_MSC_RDPS_WindSpeed_IsbL-0030_RLatLon0.09_PT033H.grib2 2026-05-09 20:49 324K
20260509T18Z_MSC_RDPS_WindSpeed_IsbL-0050_RLatLon0.09_PT033H.grib2 2026-05-09 20:49 347K
20260509T18Z_MSC_RDPS_WindSpeed_IsbL-0100_RLatLon0.09_PT033H.grib2 2026-05-09 20:49 471K
20260509T18Z_MSC_RDPS_WindSpeed_IsbL-0150_RLatLon0.09_PT033H.grib2 2026-05-09 20:49 375K
20260509T18Z_MSC_RDPS_WindSpeed_IsbL-0175_RLatLon0.09_PT033H.grib2 2026-05-09 20:49 421K
20260509T18Z_MSC_RDPS_WindSpeed_IsbL-0200_RLatLon0.09_PT033H.grib2 2026-05-09 20:49 438K
20260509T18Z_MSC_RDPS_WindSpeed_IsbL-0225_RLatLon0.09_PT033H.grib2 2026-05-09 20:49 447K
20260509T18Z_MSC_RDPS_WindSpeed_IsbL-0250_RLatLon0.09_PT033H.grib2 2026-05-09 20:49 451K
20260509T18Z_MSC_RDPS_WindSpeed_IsbL-0275_RLatLon0.09_PT033H.grib2 2026-05-09 20:49 471K
20260509T18Z_MSC_RDPS_WindSpeed_IsbL-0300_RLatLon0.09_PT033H.grib2 2026-05-09 20:49 469K
20260509T18Z_MSC_RDPS_WindSpeed_IsbL-0350_RLatLon0.09_PT033H.grib2 2026-05-09 20:49 478K
20260509T18Z_MSC_RDPS_WindSpeed_IsbL-0400_RLatLon0.09_PT033H.grib2 2026-05-09 20:49 484K
20260509T18Z_MSC_RDPS_WindSpeed_IsbL-0450_RLatLon0.09_PT033H.grib2 2026-05-09 20:49 469K
20260509T18Z_MSC_RDPS_WindSpeed_IsbL-0500_RLatLon0.09_PT033H.grib2 2026-05-09 20:49 469K
20260509T18Z_MSC_RDPS_WindSpeed_IsbL-0550_RLatLon0.09_PT033H.grib2 2026-05-09 20:49 471K
20260509T18Z_MSC_RDPS_WindSpeed_IsbL-0600_RLatLon0.09_PT033H.grib2 2026-05-09 20:49 600K
20260509T18Z_MSC_RDPS_WindSpeed_IsbL-0650_RLatLon0.09_PT033H.grib2 2026-05-09 20:49 618K
20260509T18Z_MSC_RDPS_WindSpeed_IsbL-0700_RLatLon0.09_PT033H.grib2 2026-05-09 20:49 683K
20260509T18Z_MSC_RDPS_WindSpeed_IsbL-0750_RLatLon0.09_PT033H.grib2 2026-05-09 20:49 712K
20260509T18Z_MSC_RDPS_WindSpeed_IsbL-0800_RLatLon0.09_PT033H.grib2 2026-05-09 20:49 760K
20260509T18Z_MSC_RDPS_WindSpeed_IsbL-0850_RLatLon0.09_PT033H.grib2 2026-05-09 20:49 812K
20260509T18Z_MSC_RDPS_WindSpeed_IsbL-0875_RLatLon0.09_PT033H.grib2 2026-05-09 20:49 831K
20260509T18Z_MSC_RDPS_WindSpeed_IsbL-0900_RLatLon0.09_PT033H.grib2 2026-05-09 20:49 846K
20260509T18Z_MSC_RDPS_WindSpeed_IsbL-0925_RLatLon0.09_PT033H.grib2 2026-05-09 20:49 860K
20260509T18Z_MSC_RDPS_WindSpeed_IsbL-0950_RLatLon0.09_PT033H.grib2 2026-05-09 20:49 863K
20260509T18Z_MSC_RDPS_WindSpeed_IsbL-0970_RLatLon0.09_PT033H.grib2 2026-05-09 20:49 860K
20260509T18Z_MSC_RDPS_WindSpeed_IsbL-0985_RLatLon0.09_PT033H.grib2 2026-05-09 20:49 855K
20260509T18Z_MSC_RDPS_WindSpeed_IsbL-1000_RLatLon0.09_PT033H.grib2 2026-05-09 20:49 843K
20260509T18Z_MSC_RDPS_WindSpeed_IsbL-1015_RLatLon0.09_PT033H.grib2 2026-05-09 20:49 836K
20260509T18Z_MSC_RDPS_WindU_AGL-10m_RLatLon0.09_PT033H.grib2 2026-05-09 20:49 432K
20260509T18Z_MSC_RDPS_WindU_AGL-120m_RLatLon0.09_PT033H.grib2 2026-05-09 20:49 419K
20260509T18Z_MSC_RDPS_WindU_AGL-40m_RLatLon0.09_PT033H.grib2 2026-05-09 20:49 539K
20260509T18Z_MSC_RDPS_WindU_AGL-80m_RLatLon0.09_PT033H.grib2 2026-05-09 20:49 537K
20260509T18Z_MSC_RDPS_WindU_IsbL-0001_RLatLon0.09_PT033H.grib2 2026-05-09 20:49 294K
20260509T18Z_MSC_RDPS_WindU_IsbL-0005_RLatLon0.09_PT033H.grib2 2026-05-09 20:49 290K
20260509T18Z_MSC_RDPS_WindU_IsbL-0010_RLatLon0.09_PT033H.grib2 2026-05-09 20:49 300K
20260509T18Z_MSC_RDPS_WindU_IsbL-0020_RLatLon0.09_PT033H.grib2 2026-05-09 20:49 355K
20260509T18Z_MSC_RDPS_WindU_IsbL-0030_RLatLon0.09_PT033H.grib2 2026-05-09 20:49 354K
20260509T18Z_MSC_RDPS_WindU_IsbL-0050_RLatLon0.09_PT033H.grib2 2026-05-09 20:49 340K
20260509T18Z_MSC_RDPS_WindU_IsbL-0100_RLatLon0.09_PT033H.grib2 2026-05-09 20:49 428K
20260509T18Z_MSC_RDPS_WindU_IsbL-0150_RLatLon0.09_PT033H.grib2 2026-05-09 20:49 392K
20260509T18Z_MSC_RDPS_WindU_IsbL-0175_RLatLon0.09_PT033H.grib2 2026-05-09 20:49 415K
20260509T18Z_MSC_RDPS_WindU_IsbL-0200_RLatLon0.09_PT033H.grib2 2026-05-09 20:49 431K
20260509T18Z_MSC_RDPS_WindU_IsbL-0225_RLatLon0.09_PT033H.grib2 2026-05-09 20:49 440K
20260509T18Z_MSC_RDPS_WindU_IsbL-0250_RLatLon0.09_PT033H.grib2 2026-05-09 20:49 341K
20260509T18Z_MSC_RDPS_WindU_IsbL-0275_RLatLon0.09_PT033H.grib2 2026-05-09 20:49 358K
20260509T18Z_MSC_RDPS_WindU_IsbL-0300_RLatLon0.09_PT033H.grib2 2026-05-09 20:49 355K
20260509T18Z_MSC_RDPS_WindU_IsbL-0350_RLatLon0.09_PT033H.grib2 2026-05-09 20:49 466K
20260509T18Z_MSC_RDPS_WindU_IsbL-0400_RLatLon0.09_PT033H.grib2 2026-05-09 20:49 472K
20260509T18Z_MSC_RDPS_WindU_IsbL-0450_RLatLon0.09_PT033H.grib2 2026-05-09 20:49 474K
20260509T18Z_MSC_RDPS_WindU_IsbL-0500_RLatLon0.09_PT033H.grib2 2026-05-09 20:49 476K
20260509T18Z_MSC_RDPS_WindU_IsbL-0550_RLatLon0.09_PT033H.grib2 2026-05-09 20:49 460K
20260509T18Z_MSC_RDPS_WindU_IsbL-0600_RLatLon0.09_PT033H.grib2 2026-05-09 20:49 470K
20260509T18Z_MSC_RDPS_WindU_IsbL-0650_RLatLon0.09_PT033H.grib2 2026-05-09 20:49 487K
20260509T18Z_MSC_RDPS_WindU_IsbL-0700_RLatLon0.09_PT033H.grib2 2026-05-09 20:49 508K
20260509T18Z_MSC_RDPS_WindU_IsbL-0750_RLatLon0.09_PT033H.grib2 2026-05-09 20:49 535K
20260509T18Z_MSC_RDPS_WindU_IsbL-0800_RLatLon0.09_PT033H.grib2 2026-05-09 20:49 576K
20260509T18Z_MSC_RDPS_WindU_IsbL-0850_RLatLon0.09_PT033H.grib2 2026-05-09 20:49 621K
20260509T18Z_MSC_RDPS_WindU_IsbL-0875_RLatLon0.09_PT033H.grib2 2026-05-09 20:49 637K
20260509T18Z_MSC_RDPS_WindU_IsbL-0900_RLatLon0.09_PT033H.grib2 2026-05-09 20:49 649K
20260509T18Z_MSC_RDPS_WindU_IsbL-0925_RLatLon0.09_PT033H.grib2 2026-05-09 20:49 659K
20260509T18Z_MSC_RDPS_WindU_IsbL-0950_RLatLon0.09_PT033H.grib2 2026-05-09 20:49 658K
20260509T18Z_MSC_RDPS_WindU_IsbL-0970_RLatLon0.09_PT033H.grib2 2026-05-09 20:49 654K
20260509T18Z_MSC_RDPS_WindU_IsbL-0985_RLatLon0.09_PT033H.grib2 2026-05-09 20:49 650K
20260509T18Z_MSC_RDPS_WindU_IsbL-1000_RLatLon0.09_PT033H.grib2 2026-05-09 20:49 782K
20260509T18Z_MSC_RDPS_WindU_IsbL-1015_RLatLon0.09_PT033H.grib2 2026-05-09 20:49 777K
20260509T18Z_MSC_RDPS_WindV_AGL-10m_RLatLon0.09_PT033H.grib2 2026-05-09 20:49 426K
20260509T18Z_MSC_RDPS_WindV_AGL-120m_RLatLon0.09_PT033H.grib2 2026-05-09 20:49 530K
20260509T18Z_MSC_RDPS_WindV_AGL-40m_RLatLon0.09_PT033H.grib2 2026-05-09 20:49 531K
20260509T18Z_MSC_RDPS_WindV_AGL-80m_RLatLon0.09_PT033H.grib2 2026-05-09 20:49 531K
20260509T18Z_MSC_RDPS_WindV_IsbL-0001_RLatLon0.09_PT033H.grib2 2026-05-09 20:49 296K
20260509T18Z_MSC_RDPS_WindV_IsbL-0005_RLatLon0.09_PT033H.grib2 2026-05-09 20:49 289K
20260509T18Z_MSC_RDPS_WindV_IsbL-0010_RLatLon0.09_PT033H.grib2 2026-05-09 20:49 301K
20260509T18Z_MSC_RDPS_WindV_IsbL-0020_RLatLon0.09_PT033H.grib2 2026-05-09 20:49 318K
20260509T18Z_MSC_RDPS_WindV_IsbL-0030_RLatLon0.09_PT033H.grib2 2026-05-09 20:49 316K
20260509T18Z_MSC_RDPS_WindV_IsbL-0050_RLatLon0.09_PT033H.grib2 2026-05-09 20:49 340K
20260509T18Z_MSC_RDPS_WindV_IsbL-0100_RLatLon0.09_PT033H.grib2 2026-05-09 20:49 424K
20260509T18Z_MSC_RDPS_WindV_IsbL-0150_RLatLon0.09_PT033H.grib2 2026-05-09 20:49 390K
20260509T18Z_MSC_RDPS_WindV_IsbL-0175_RLatLon0.09_PT033H.grib2 2026-05-09 20:49 414K
20260509T18Z_MSC_RDPS_WindV_IsbL-0200_RLatLon0.09_PT033H.grib2 2026-05-09 20:49 333K
20260509T18Z_MSC_RDPS_WindV_IsbL-0225_RLatLon0.09_PT033H.grib2 2026-05-09 20:49 337K
20260509T18Z_MSC_RDPS_WindV_IsbL-0250_RLatLon0.09_PT033H.grib2 2026-05-09 20:49 365K
20260509T18Z_MSC_RDPS_WindV_IsbL-0275_RLatLon0.09_PT033H.grib2 2026-05-09 20:49 357K
20260509T18Z_MSC_RDPS_WindV_IsbL-0300_RLatLon0.09_PT033H.grib2 2026-05-09 20:49 354K
20260509T18Z_MSC_RDPS_WindV_IsbL-0350_RLatLon0.09_PT033H.grib2 2026-05-09 20:49 361K
20260509T18Z_MSC_RDPS_WindV_IsbL-0400_RLatLon0.09_PT033H.grib2 2026-05-09 20:49 470K
20260509T18Z_MSC_RDPS_WindV_IsbL-0450_RLatLon0.09_PT033H.grib2 2026-05-09 20:49 471K
20260509T18Z_MSC_RDPS_WindV_IsbL-0500_RLatLon0.09_PT033H.grib2 2026-05-09 20:49 472K
20260509T18Z_MSC_RDPS_WindV_IsbL-0550_RLatLon0.09_PT033H.grib2 2026-05-09 20:49 473K
20260509T18Z_MSC_RDPS_WindV_IsbL-0600_RLatLon0.09_PT033H.grib2 2026-05-09 20:49 467K
20260509T18Z_MSC_RDPS_WindV_IsbL-0650_RLatLon0.09_PT033H.grib2 2026-05-09 20:49 483K
20260509T18Z_MSC_RDPS_WindV_IsbL-0700_RLatLon0.09_PT033H.grib2 2026-05-09 20:49 503K
20260509T18Z_MSC_RDPS_WindV_IsbL-0750_RLatLon0.09_PT033H.grib2 2026-05-09 20:49 528K
20260509T18Z_MSC_RDPS_WindV_IsbL-0800_RLatLon0.09_PT033H.grib2 2026-05-09 20:49 569K
20260509T18Z_MSC_RDPS_WindV_IsbL-0850_RLatLon0.09_PT033H.grib2 2026-05-09 20:49 615K
20260509T18Z_MSC_RDPS_WindV_IsbL-0875_RLatLon0.09_PT033H.grib2 2026-05-09 20:49 631K
20260509T18Z_MSC_RDPS_WindV_IsbL-0900_RLatLon0.09_PT033H.grib2 2026-05-09 20:49 643K
20260509T18Z_MSC_RDPS_WindV_IsbL-0925_RLatLon0.09_PT033H.grib2 2026-05-09 20:49 653K
20260509T18Z_MSC_RDPS_WindV_IsbL-0950_RLatLon0.09_PT033H.grib2 2026-05-09 20:49 652K
20260509T18Z_MSC_RDPS_WindV_IsbL-0970_RLatLon0.09_PT033H.grib2 2026-05-09 20:49 786K
20260509T18Z_MSC_RDPS_WindV_IsbL-0985_RLatLon0.09_PT033H.grib2 2026-05-09 20:49 781K
20260509T18Z_MSC_RDPS_WindV_IsbL-1000_RLatLon0.09_PT033H.grib2 2026-05-09 20:49 821K
20260509T18Z_MSC_RDPS_WindV_IsbL-1015_RLatLon0.09_PT033H.grib2 2026-05-09 20:49 815K